Погода в Кавалерском

Россия / Ростовская область     46°20′36″N   40°27′05″E
В апреле 2022 года жителям России запретили посещать сайт meteo.paraplan.net по решению Генеральной прокуратуры. Аудитория сайта уменьшилась в 10 раз. Владельцы сайта не видят смысла в поддержке погодного сервера в таких условиях. Сайт будет закрыт в октябре.
темп.,
°C
ветер,
м/с
пор.,
м/с
влажн.,
%
обл.,
%
осадки,
мм/ч
давл.,
гПа
погр.,
м
29 сентября, чт
чт2900:00+17юз4105927 0.0 1008253
03:00+16юз410769 0.0 1009241
06:00+15юз37900 0.0 1010145
09:00+19зюз46680 0.0 1011455
12:00+24зюз45430 0.0 10121529
15:00+25з45360 0.0 10122012
18:00+22зсз234815 0.0 101330
21:00+19ссз335856 0.0 101539
30 сентября, пт
пт3000:00+18ссв11680 0.0 101511
03:00+17юв11695 0.0 101611
06:00+16юв116830 0.0 101711
09:00+21юв225161 0.0 1018250
12:00+25ююв22440 0.0 10181034
15:00+27юз22340 0.0 10171964
18:00+24сз00400 0.0 101811
21:00+22в11470 0.0 101811
1 октября, сб
сб100:00+20вюв22590 0.0 101811
03:00+20ююв11630 0.0 101911
06:00+19ю11679 0.0 102011
09:00+23юз22520 0.0 1021294
12:00+27юз23365 0.0 10201257
15:00+29зюз233067 0.0 10191994
18:00+25ю113715 0.0 101811
21:00+23ююз014363 0.0 101811
2 октября, вс
вс200:00+21в0149100 0.0 101711
03:00+20ю2255100 0.0 101623
06:00+19ююв2259100 0.0 101523
09:00+22ююв2348100 0.0 1014236
12:00+27юв3437100 0.0 1013918
15:00+28вюв5632100 0.0 10101616
18:00+25вюв4840100 0.0 1008192
21:00+23вюв51342100 0.0 1007348
3 октября, пн
пн300:00+21в51245100 0.0 1005324
03:00+20в61356100 0.0 1004326
06:00+18юв256299 0.0 1004114
09:00+19юв3559100 0.1 1005181
12:00+20юз51065100 0.0 1006888
15:00+19з6976100 0.8 10081071
18:00+15з5978100 1.3 1011930
21:00+14зсз3774100 1.7 1013527